Location: Newark
(48.8833°N, 0.9236°W)
Time: 21:03:18
(UTC+00:00)

Tiros 1 despin weight - Pass Details

Date: 21 November 2019
Orbit: 594 x 642 km, 48.2° (Epoch: 07 December)

Event Time Altitude Azimuth Distance (km) Brightness Sun altitude
Rises 18:09:04 0° 282° (WNW) 2,848 ? -18.0°
Reaches altitude 10° 18:11:38 10° 270° (W) 1,950 ? -18.5°
Maximum altitude 18:15:19 26° 214° (SW) 1,220 ? -19.1°
Drops below altitude 10° 18:19:02 10° 158° (SSE) 1,966 ? -19.7°
Enters shadow 18:19:40 - 154° (SSE) 2,173 ? -19.8°
Sets 18:21:39 0° 146° (SE) 2,877 - -20.1°
